Weather Roundup
Issued by NWS Chicago, IL

Home | Current Version | Previous Version | Graphics & Text | Print | Product List | Glossary On
Versions: 1 2 3 4 5 6 7 8 9 10 11 12 13 14 15 16 17 18 19 20 21 22 23 24 25 26 27 28 29 30 31 32 33 34 35 36 37 38 39 40 41 42 43 44 45 46 47 48 49 50
000
NZUS59 KLOT 220004
HRRLOT

CHICAGO AREA WEATHER ROUNDUP
NATIONAL WEATHER SERVICE CHICAGO/ROMEOVILLE IL
700 PM CDT SAT OCT 21 2017

NOTE: "FAIR" INDICATES FEW OR NO CLOUDS BELOW 12,000 FEET WITH NO
SIGNIFICANT WEATHER AND/OR OBSTRUCTIONS TO VISIBILITY.

* THESE STATIONS ARE NOT UNDER NWS QUALITY CONTROL. THEY ALSO MAY NOT
  REPORT WEATHER SUCH AS PRECIPITATION OR FOG.

ILZ005-006-012>014-019>023-220100-
NORTHEAST ILLINOIS

CITY           SKY/WX    TMP DP  RH WIND       PRES   REMARKS
OHARE          MOCLDY    72  57  59 S18       30.00R
6HR MIN TEMP:  72; 6HR MAX TEMP:  77;

MIDWAY         MOCLDY    74  58  57 S13       30.02R
6HR MIN TEMP:  74; 6HR MAX TEMP:  78;

AURORA         CLEAR     72  59  63 S13       30.00R
6HR MIN TEMP:  71; 6HR MAX TEMP:  78;

LANSING*       CLEAR     71  59  66 S13G20    30.04R
JOLIET*        PTCLDY    73  59  62 S8        30.02R
WAUKEGAN       PTCLDY    72  59  63 S15       29.98R
6HR MIN TEMP:  70; 6HR MAX TEMP:  76;

DUPAGE AIRPORT CLEAR     70  59  68 S13       29.99R
6HR MIN TEMP:  70; 6HR MAX TEMP:  76;

WHEELING       PTCLDY    74  60  61 S17       30.00R
6HR MIN TEMP:  73; 6HR MAX TEMP:  78;

KANKAKEE*      MOCLDY    71  57  62 S13       30.05R
NORTHERLY ISL    N/A     71  56  58 SE12        N/A
$$

WIZ051-052-058>065-066-070>072-220100-
SOUTHEAST WISCONSIN

CITY           SKY/WX    TMP DP  RH WIND       PRES   REMARKS
MILWAUKEE      PTCLDY    68  57  68 S8        29.97R
6HR MIN TEMP:  67; 6HR MAX TEMP:  76;

KENOSHA*       CLEAR     71  57  61 S12       29.98R
RACINE*        PTCLDY    65  57  75 S12       29.99R
WAUKESHA       CLEAR     70  54  56 S9        29.97R
WEST BEND      CLEAR     64  54  68 SE6       29.95S
$$

INZ001>003-010>013-019-020-220100-
NORTHWEST INDIANA

CITY           SKY/WX    TMP DP  RH WIND       PRES   REMARKS
GARY*          PTCLDY    73  55  53 SE12      30.04R
MICHIGAN CITY* NOT AVBL
RENSSELAER*    NOT AVBL
VALPARAISO     PTCLDY    71  57  61 SE13      30.07R
$$

LMZ740>746-220100-
SOUTHERN LAKE MICHIGAN

STATION/POSITION TIME  SKY/WX   TEMP WIND        PRES    VSBY
                                AIR  DIR/SP/G
                 (UTC)          (F)  (DEG/KT/KT) (MB)    (MI)
HARRISON CRIB    2340            69  170/ 20/ 21   N/A
BURNHAM HARBOR   0000            71  160/ 11/ 16   N/A
CALUMET HARBOR   2324            73  160/ 11/ 14 1015.9
BURNS HARBOR     2340            72  170/ 11/ 19 1017.6R
MICHIGAN CITY    2340            72  160/  9/ 11   N/A
$$

ABBREVIATIONS USED IN REMARKS
   TC - TEMPERATURE IN CELSIUS
  WCI - WIND CHILL INDEX
   HX - HEAT INDEX
  VSB - VISIBILITY
$$




USA.gov is the U.S. government's official web portal to all federal, state and local government web resources and services.